• In France
  • List of Countries
  • For 7 days
  • Water Temperature
  • Satellite Maps
  • Weather Map
  • Weather Widgets
  • user-avatar
    Login

    Hourly Weather Bouake

    Today, 21 February, Wednesday

    Time Temperature Precipitation Wind Pressure Humidity
    00:00 +25°C° 1.6 mm 0 mps 728 mmHg 75%
    01:00 +27°C° 0.4 mm 1 mps 728 mmHg 76%
    02:00 +27°C° 0.4 mm 2 mps 727 mmHg 77%
    03:00 +27°C° 0.4 mm 2 mps 727 mmHg 78%
    04:00 +27°C° 0 mm 2 mps 727 mmHg 80%
    05:00 +27°C° 0 mm 2 mps 727 mmHg 81%
    06:00 +26°C° 0 mm 2 mps 727 mmHg 82%
    07:00 +27°C° 0 mm 2 mps 728 mmHg 78%
    08:00 +28°C° 0 mm 2 mps 728 mmHg 74%
    09:00 +29°C° 0 mm 3 mps 728 mmHg 70%
    10:00 +30°C° 0 mm 3 mps 728 mmHg 63%
    11:00 +33°C° 0 mm 3 mps 728 mmHg 55%
    12:00 +35°C° 0 mm 3 mps 728 mmHg 48%
    13:00 +36°C° 0 mm 3 mps 727 mmHg 45%
    14:00 +37°C° 0 mm 3 mps 726 mmHg 42%
    15:00 +38°C° 0 mm 3 mps 725 mmHg 38%
    16:00 +37°C° 0 mm 2 mps 725 mmHg 41%
    17:00 +36°C° 0 mm 2 mps 725 mmHg 43%
    18:00 +35°C° 0 mm 2 mps 725 mmHg 45%
    19:00 +34°C° 0.2 mm 2 mps 726 mmHg 50%
    20:00 +32°C° 0.2 mm 2 mps 726 mmHg 54%
    21:00 +31°C° 0.2 mm 3 mps 727 mmHg 59%
    22:00 +30°C° 0.7 mm 3 mps 727 mmHg 64%
    23:00 +29°C° 0.7 mm 3 mps 727 mmHg 70%

    Tomorrow, 22 February, Thursday

    Time Temperature Precipitation Wind Pressure Humidity
    00:00 +28°C° 0.7 mm 3 mps 728 mmHg 75%
    01:00 +28°C° 0.1 mm 3 mps 727 mmHg 77%
    02:00 +27°C° 0.1 mm 3 mps 727 mmHg 79%
    03:00 +27°C° 0.1 mm 3 mps 726 mmHg 81%
    04:00 +27°C° 0 mm 3 mps 726 mmHg 82%
    05:00 +26°C° 0 mm 2 mps 726 mmHg 83%
    06:00 +26°C° 0 mm 2 mps 726 mmHg 84%
    07:00 +27°C° 0 mm 2 mps 727 mmHg 81%
    08:00 +27°C° 0 mm 3 mps 727 mmHg 78%
    09:00 +28°C° 0 mm 3 mps 728 mmHg 76%
    10:00 +29°C° 0 mm 3 mps 728 mmHg 70%
    11:00 +30°C° 0 mm 3 mps 728 mmHg 64%
    12:00 +33°C° 0 mm 3 mps 728 mmHg 58%
    13:00 +34°C° 0 mm 2 mps 727 mmHg 56%
    14:00 +34°C° 0 mm 2 mps 726 mmHg 53%
    15:00 +35°C° 0 mm 2 mps 725 mmHg 50%
    16:00 +34°C° 0 mm 2 mps 725 mmHg 51%
    17:00 +34°C° 0 mm 2 mps 725 mmHg 52%
    18:00 +33°C° 0 mm 1 mps 725 mmHg 53%
    19:00 +32°C° 0.6 mm 2 mps 726 mmHg 58%
    20:00 +30°C° 0.6 mm 2 mps 726 mmHg 62%
    21:00 +29°C° 0.6 mm 2 mps 726 mmHg 66%
    22:00 +29°C° 0.3 mm 2 mps 727 mmHg 69%
    23:00 +28°C° 0.3 mm 3 mps 727 mmHg 72%

    Day after tomorrow, 23 February, Friday

    Time Temperature Precipitation Wind Pressure Humidity
    00:00 +28°C° 0.3 mm 3 mps 727 mmHg 75%
    01:00 +27°C° 0 mm 3 mps 726 mmHg 77%
    02:00 +27°C° 0 mm 3 mps 726 mmHg 79%
    03:00 +26°C° 0 mm 3 mps 726 mmHg 81%
    04:00 +26°C° 0 mm 2 mps 726 mmHg 83%
    05:00 +26°C° 0 mm 2 mps 726 mmHg 84%
    06:00 +26°C° 0 mm 2 mps 726 mmHg 86%
    07:00 +26°C° 0 mm 2 mps 727 mmHg 82%
    08:00 +27°C° 0 mm 2 mps 728 mmHg 79%
    09:00 +28°C° 0 mm 3 mps 728 mmHg 75%
    10:00 +29°C° 0 mm 3 mps 728 mmHg 67%
    11:00 +31°C° 0 mm 3 mps 728 mmHg 59%
    12:00 +34°C° 0 mm 3 mps 727 mmHg 51%
    13:00 +35°C° 0 mm 3 mps 727 mmHg 48%
    14:00 +36°C° 0 mm 3 mps 726 mmHg 44%
    15:00 +37°C° 0 mm 3 mps 725 mmHg 40%
    16:00 +36°C° 0 mm 2 mps 725 mmHg 42%
    17:00 +36°C° 0 mm 2 mps 725 mmHg 44%
    18:00 +35°C° 0 mm 2 mps 725 mmHg 45%
    19:00 +34°C° 0.3 mm 2 mps 725 mmHg 49%
    20:00 +32°C° 0.3 mm 1 mps 726 mmHg 53%
    21:00 +31°C° 0.3 mm 1 mps 727 mmHg 57%
    22:00 +30°C° 1 mm 2 mps 727 mmHg 63%
    23:00 +29°C° 1 mm 3 mps 727 mmHg 70%

    24 February, Saturday

    Time Temperature Precipitation Wind Pressure Humidity
    00:00 +28°C° 1 mm 3 mps 727 mmHg 76%
    01:00 +27°C° 0 mm 3 mps 727 mmHg 78%
    02:00 +27°C° 0 mm 3 mps 726 mmHg 80%
    03:00 +27°C° 0 mm 3 mps 726 mmHg 82%
    04:00 +26°C° 0 mm 3 mps 726 mmHg 84%
    05:00 +26°C° 0 mm 2 mps 727 mmHg 85%
    06:00 +26°C° 0 mm 2 mps 727 mmHg 86%
    07:00 +26°C° 0 mm 2 mps 728 mmHg 83%
    08:00 +27°C° 0 mm 2 mps 729 mmHg 80%
    09:00 +28°C° 0 mm 2 mps 729 mmHg 77%
    10:00 +29°C° 0 mm 2 mps 729 mmHg 70%
    11:00 +31°C° 0 mm 2 mps 729 mmHg 62%
    12:00 +32°C° 0 mm 2 mps 729 mmHg 55%
    13:00 +34°C° 2.2 mm 2 mps 728 mmHg 53%
    14:00 +33°C° 2.2 mm 1 mps 727 mmHg 51%
    15:00 +33°C° 2.2 mm 1 mps 726 mmHg 50%
    16:00 +33°C° 0 mm 1 mps 727 mmHg 51%
    17:00 +32°C° 0 mm 1 mps 727 mmHg 53%
    18:00 +32°C° 0 mm 1 mps 727 mmHg 54%
    19:00 +31°C° 0 mm 1 mps 727 mmHg 58%
    20:00 +30°C° 0 mm 1 mps 728 mmHg 61%
    21:00 +29°C° 0 mm 2 mps 728 mmHg 64%
    22:00 +28°C° 0 mm 2 mps 728 mmHg 67%
    23:00 +28°C° 0 mm 2 mps 728 mmHg 70%

    25 February, Sunday

    Time Temperature Precipitation Wind Pressure Humidity
    00:00 +28°C° 0 mm 2 mps 728 mmHg 73%
    01:00 +27°C° 0 mm 2 mps 728 mmHg 75%
    02:00 +27°C° 0 mm 1 mps 727 mmHg 77%
    03:00 +27°C° 0 mm 1 mps 727 mmHg 79%
    04:00 +26°C° 0 mm 1 mps 727 mmHg 81%
    05:00 +26°C° 0 mm 1 mps 728 mmHg 82%
    06:00 +26°C° 0 mm 1 mps 728 mmHg 84%
    07:00 +27°C° 0 mm 1 mps 729 mmHg 81%
    08:00 +27°C° 0 mm 2 mps 729 mmHg 77%
    09:00 +28°C° 0 mm 2 mps 730 mmHg 74%
    10:00 +30°C° 0 mm 2 mps 730 mmHg 66%
    11:00 +32°C° 0 mm 2 mps 729 mmHg 59%
    12:00 +34°C° 0 mm 2 mps 729 mmHg 52%
    13:00 +35°C° 0 mm 2 mps 728 mmHg 50%
    14:00 +34°C° 0 mm 1 mps 727 mmHg 48%
    15:00 +35°C° 0 mm 1 mps 726 mmHg 46%
    16:00 +34°C° 0 mm 1 mps 727 mmHg 48%
    17:00 +33°C° 0 mm 1 mps 727 mmHg 51%
    18:00 +32°C° 0 mm 1 mps 727 mmHg 53%
    19:00 +31°C° 0.8 mm 2 mps 728 mmHg 58%
    20:00 +30°C° 0.8 mm 2 mps 728 mmHg 63%
    21:00 +29°C° 0.8 mm 2 mps 729 mmHg 68%
    22:00 +29°C° 0 mm 2 mps 729 mmHg 70%
    23:00 +28°C° 0 mm 2 mps 728 mmHg 72%

    26 February, Monday

    Time Temperature Precipitation Wind Pressure Humidity
    00:00 +28°C° 0 mm 2 mps 728 mmHg 74%
    01:00 +28°C° 0 mm 2 mps 728 mmHg 76%
    02:00 +27°C° 0 mm 2 mps 728 mmHg 79%
    03:00 +27°C° 0 mm 3 mps 727 mmHg 82%
    04:00 +27°C° 1.4 mm 2 mps 728 mmHg 82%
    05:00 +27°C° 1.4 mm 2 mps 728 mmHg 82%
    06:00 +26°C° 1.4 mm 2 mps 728 mmHg 83%
    07:00 +27°C° 1.1 mm 2 mps 729 mmHg 81%
    08:00 +27°C° 1.1 mm 2 mps 729 mmHg 79%
    09:00 +28°C° 1.1 mm 2 mps 730 mmHg 77%
    10:00 +29°C° 0.1 mm 2 mps 730 mmHg 69%
    11:00 +31°C° 0.1 mm 2 mps 729 mmHg 61%
    12:00 +34°C° 0.1 mm 2 mps 729 mmHg 53%
    13:00 +35°C° 0 mm 2 mps 728 mmHg 48%
    14:00 +36°C° 0 mm 2 mps 728 mmHg 43%
    15:00 +36°C° 0 mm 1 mps 727 mmHg 38%
    16:00 +35°C° 0.9 mm 1 mps 727 mmHg 43%
    17:00 +35°C° 0.9 mm 2 mps 727 mmHg 48%
    18:00 +32°C° 0.9 mm 2 mps 727 mmHg 52%
    19:00 +31°C° 4.1 mm 2 mps 728 mmHg 62%
    20:00 +29°C° 4.1 mm 3 mps 729 mmHg 72%
    21:00 +27°C° 4.1 mm 4 mps 730 mmHg 82%
    22:00 +27°C° 0.1 mm 3 mps 730 mmHg 81%
    23:00 +27°C° 0.1 mm 2 mps 729 mmHg 80%
    Show more